Tracking 29059 objects as of 18-Jun-2024
HD Live streaming from Space Station
objects crossing your sky now

STARLINK-5966

Track STARLINK-5966 now!
10-day predictions
STARLINK-5966 is classified as:


NORAD ID: 56919
Int'l Code: 2023-083AV
Perigee: 565.2 km
Apogee: 567.3 km
Inclination: 43.0 °
Period: 95.8 minutes
Semi major axis: 6937 km
RCS: Unknown
Launch date: June 12, 2023
Source: United States (US)
Launch site: AIR FORCE EASTERN TEST RANGE (AFETR)
Your satellite tracking list
Your tracking list is empty




NASA's NSSDC Master Catalog

Two Line Element Set (TLE):
1 56919U 23083AV  24169.50196194 -.00000798  00000-0 -44033-4 0  9997
2 56919  43.0028 253.0533 0001481 282.2789  77.7888 15.02527288 56222
Source of the keplerian elements: AFSPC